Home   Weather   Village of New Paris   Past weeks
Flag for USA

Past Weather in Village of New Paris, Ohio, USA — Yesterday and Last 2 Weeks

Now
76 °F

Sunny.


Feels Like: 76 °F
Forecast: 94 / 76 °F
Wind: No wind

Location: Dayton / Wright-Patterson Air Force Base

Current Time: Jul 20, 2019 at 8:05:49 am

Latest Report: Jul 20, 2019 at 6:56 am


Visibility: 10 mi

Pressure: 30.03 "Hg

Humidity: 92%

Dew Point: 73 °F

Location of Village of New ParisLocation

Past Weather in Village of New Paris — Graph

°F

Village of New Paris Temperature Yesterday

Maximum temperature yesterday: 92 °F (at 3:56 pm)
Minimum temperature yesterday: 73 °F (at 4:16 am)
Average temperature yesterday: 82 °F

High & Low Weather Summary for the Past Weeks

 TemperatureHumidityPressure
High92 °F (Jul 15, 3:56 pm)100% (Jul 7, 5:56 am)30.14 "Hg (Jul 7, 5:56 am)
Low59 °F (Jul 13, 3:56 am)32% (Jul 13, 2:56 pm)29.80 "Hg (Jul 11, 5:56 pm)
Average78 °F74%29.98 "Hg
* Reported Jul 5 6:56 am — Jul 20 6:56 am, Village of New Paris. Weather by CustomWeather, © 2019

Note: Actual official high and low records may vary slightly from our data, if they occured in-between our weather recording intervals... More about our weather records

Advertising

Village of New Paris Weather History for the Previous 24 Hours

Scroll right to see more
 ConditionsComfort  
Time TempWeatherWind HumidityBarometerVisibility
6:56 am
Sat, Jul 20
76 °FSunny.No wind92%30.03 "Hg10 mi
5:56 am76 °FClear.No wind91%30.00 "Hg10 mi
4:56 am76 °FClear.No wind91%29.96 "Hg10 mi
3:56 am76 °FClear.7 mph90%29.96 "Hg10 mi
2:56 am78 °FClear.8 mph87%29.95 "Hg10 mi
1:56 am79 °FClear.6 mph85%29.96 "Hg10 mi
12:56 am78 °FClear.8 mph87%29.96 "Hg10 mi
11:56 pm
Fri, Jul 19
79 °FClear.5 mph86%29.96 "Hg10 mi
10:56 pm82 °FClear.No wind77%29.96 "Hg10 mi
9:56 pm82 °FClear.No wind76%29.95 "Hg10 mi
8:56 pm84 °FSunny.8 mph72%29.91 "Hg10 mi
7:56 pm87 °FSunny.8 mph67%29.93 "Hg10 mi
6:56 pm89 °FPassing clouds.15 mph61%29.93 "Hg10 mi
5:56 pm91 °FBroken clouds.14 mph62%29.93 "Hg10 mi
4:56 pm92 °FPassing clouds.14 mph57%29.93 "Hg10 mi
3:56 pm92 °FScattered clouds.17 mph58%29.94 "Hg10 mi
2:56 pm92 °FPassing clouds.16 mph61%29.95 "Hg10 mi
1:56 pm90 °FScattered clouds.14 mph65%29.95 "Hg10 mi
12:56 pm89 °FPassing clouds.14 mph70%29.96 "Hg10 mi
11:56 am87 °FScattered clouds.12 mph73%29.96 "Hg10 mi
10:56 am85 °FScattered clouds.12 mph79%29.98 "Hg10 mi
9:56 am83 °FScattered clouds.13 mph82%29.99 "Hg10 mi
8:56 am80 °FScattered clouds.10 mph89%29.98 "Hg10 mi
8:31 am79 °FScattered clouds.12 mph94%29.97 "Hg10 mi
Weather by CustomWeather, © 2019

See weather overview